Back to catalog

STARLINK-37577

AliveCommunicationsVLEO
NORAD 69452·PAYLOAD·🇺🇸 United States

Launched Jun 8, 2026 from Cape Canaveral Space Force Station

Loading…

Next Passes (next 24 hours)

TLE

FreshSource: CelesTrak SupGP

Epoch: Sep 14, 2026, 23:14 UTC

1 69452C 26127K   26257.96854167 -.00028842  00000+0 -85185-3 0  2574
2 69452  53.1583 191.8864 0001387  98.8830  80.0787 15.34415474    14

Track STARLINK-37577 in real time with AllMySat

Download on the App Store